Temperature
-2 -3 -3 -3 -3 -4 -4 -3 -2 -1 -2 -1 -1 -2 -3 -4 -4 -4 -4 -4 -4 -4 -4 -4 -3 -3 -3 -2 -2 -2 -2 -1 -1 -1 -0 -0 0 1 1 1 1 2 2 2
-3 -3 -4 -4 -3 -4 -4 -4 -3 -3 -3 -2 -3 -4 -4 -4 -4 -5 -5 -5 -5 -4 -4 -4 -4 -4 -4 -3 -3 -2 -2 -2 -2 -1 -1 -1 -0 0 0 1 1 1 1 2
-2 -4 -4 -2 -3 -4 -4 -4 -4 -3 -2 -3 -4 -4 -4 -4 -5 -5 -5 -5 -5 -5 -5 -5 -5 -5 -4 -4 -4 -3 -3 -3 -2 -2 -2 -1 -1 -1 -1 -0 0 0 1 1
-3 -3 -2 -0 -4 -4 -4 -4 -4 -4 -4 -4 -4 -5 -5 -5 -5 -5 -5 -6 -5 -5 -5 -5 -5 -5 -5 -5 -4 -4 -4 -3 -3 -3 -2 -2 -2 -1 -1 -1 -1 -0 0 0
-3 -3 -1 -1 -4 -5 -5 -4 -4 -5 -4 -4 -5 -5 -4 -5 -5 -6 -6 -6 -6 -6 -6 -6 -6 -5 -5 -5 -5 -5 -4 -4 -4 -4 -3 -3 -2 -2 -2 -2 -1 -1 -1 -0
-4 -3 -2 -1 -4 -6 -5 -3 -4 -5 -5 -5 -6 -4 -3 -5 -6 -6 -6 -6 -6 -6 -6 -6 -6 -6 -6 -6 -5 -5 -5 -5 -5 -5 -4 -4 -3 -3 -3 -3 -2 -2 -1 -1
-4 -4 -2 -3 -6 -6 -3 -2 -4 -5 -6 -6 -6 -5 -5 -6 -6 -7 -7 -7 -7 -7 -7 -7 -7 -6 -6 -6 -6 -6 -6 -6 -5 -5 -5 -4 -4 -4 -4 -3 -3 -3 -2 -2
-5 -5 -3 -5 -6 -5 -3 -5 -5 -6 -6 -6 -7 -7 -7 -7 -7 -7 -7 -7 -7 -7 -7 -7 -7 -7 -7 -7 -6 -6 -6 -6 -6 -6 -5 -5 -5 -4 -4 -4 -4 -3 -3 -3
-5 -3 -4 -6 -6 -5 -5 -6 -6 -6 -6 -7 -7 -7 -7 -7 -8 -8 -8 -8 -8 -8 -8 -8 -7 -7 -7 -7 -7 -7 -7 -6 -6 -6 -6 -6 -5 -5 -5 -5 -4 -4 -4 -3
-6 -5 -6 -6 -6 -6 -6 -6 -6 -6 -7 -7 -7 -8 -8 -8 -8 -8 -8 -8 -8 -8 -8 -8 -8 -8 -8 -7 -7 -7 -7 -7 -7 -6 -6 -6 -6 -6 -5 -5 -5 -5 -5 -4
-7 -6 -7 -6 -6 -6 -6 -7 -7 -7 -7 -7 -8 -8 -8 -9 -9 -9 -9 -9 -9 -9 -9 -8 -8 -8 -8 -8 -8 -7 -7 -7 -7 -7 -7 -6 -6 -6 -6 -6 -6 -5 -5 -5
-4 -5 -6 -5 -6 -6 -7 -7 -7 -7 -7 -8 -8 -8 -9 -9 -9 -9 -9 -9 -9 -9 -9 -9 -9 -8 -8 -8 -8 -8 -8 -8 -7 -7 -7 -7 -7 -7 -7 -6 -6 -6 -6 -5
-6 -6 -6 -6 -6 -7 -7 -8 -8 -8 -8 -8 -8 -8 -9 -9 -9 -9 -9 -9 -9 -9 -9 -9 -9 -9 -8 -8 -8 -8 -8 -8 -8 -8 -8 -8 -8 -7 -7 -7 -6 -6 -6 -6
-7 -7 -8 -7 -7 -7 -8 -8 -8 -8 -8 -8 -8 -9 -9 -9 -9 -9 -9 -9 -9 -9 -9 -9 -9 -9 -9 -9 -9 -9 -9 -9 -8 -8 -8 -8 -8 -8 -8 -8 -7 -7 -7 -6
-8 -8 -8 -8 -8 -8 -8 -8 -8 -8 -9 -9 -9 -9 -9 -9 -9 -10 -9 -9 -9 -9 -9 -9 -9 -9 -9 -9 -9 -9 -9 -9 -9 -9 -9 -9 -9 -8 -8 -8 -8 -8 -8 -7
-8 -8 -8 -8 -8 -8 -8 -9 -9 -9 -9 -9 -9 -9 -10 -10 -10 -10 -10 -10 -10 -10 -10 -10 -10 -9 -9 -9 -9 -9 -9 -9 -9 -9 -9 -9 -9 -9 -9 -9 -9 -8 -8 -8
-9 -9 -9 -9 -9 -9 -9 -9 -9 -9 -10 -10 -10 -10 -10 -10 -10 -10 -10 -10 -10 -10 -10 -10 -10 -10 -10 -10 -10 -10 -10 -10 -10 -10 -10 -10 -10 -10 -9 -9 -9 -9 -9 -8
-8 -8 -8 -9 -9 -9 -9 -9 -9 -10 -10 -10 -10 -10 -10 -10 -10 -10 -10 -10 -10 -10 -10 -10 -10 -10 -10 -10 -10 -10 -10 -10 -10 -10 -10 -10 -10 -10 -10 -10 -10 -9 -9 -9
-9 -9 -9 -9 -9 -9 -9 -9 -10 -10 -10 -10 -10 -10 -11 -11 -11 -11 -11 -11 -11 -11 -11 -11 -11 -11 -10 -10 -11 -11 -11 -10 -10 -10 -10 -10 -10 -10 -10 -10 -10 -10 -10 -9
-9 -9 -9 -9 -9 -10 -10 -10 -10 -10 -10 -10 -11 -11 -11 -11 -11 -11 -11 -11 -11 -11 -11 -11 -11 -11 -11 -11 -11 -11 -11 -11 -11 -11 -11 -11 -11 -11 -11 -11 -10 -10 -10 -10
-9 -9 -9 -9 -10 -10 -10 -10 -10 -10 -10 -11 -11 -11 -11 -11 -11 -12 -12 -12 -11 -12 -12 -11 -11 -11 -11 -11 -11 -11 -11 -11 -11 -11 -11 -11 -11 -11 -11 -11 -11 -11 -10 -10
-9 -9 -9 -10 -10 -10 -10 -10 -10 -11 -11 -11 -11 -11 -11 -11 -12 -12 -12 -12 -12 -12 -12 -12 -12 -12 -12 -12 -12 -12 -12 -12 -12 -12 -12 -12 -12 -12 -12 -11 -11 -11 -11 -11
-9 -10 -10 -10 -10 -10 -10 -11 -11 -11 -11 -11 -11 -11 -12 -12 -12 -12 -12 -12 -12 -12 -12 -12 -12 -12 -12 -12 -12 -12 -12 -12 -12 -12 -12 -12 -12 -12 -12 -12 -12 -11 -11 -11
-10 -10 -10 -10 -11 -11 -11 -11 -11 -11 -11 -12 -12 -12 -12 -12 -12 -12 -12 -12 -12 -12 -12 -12 -12 -12 -12 -12 -12 -12 -12 -12 -12 -12 -12 -12 -12 -12 -12 -12 -12 -12 -11 -11
-10 -10 -10 -11 -11 -11 -11 -11 -11 -11 -12 -12 -12 -12 -12 -12 -12 -12 -12 -12 -12 -12 -12 -12 -12 -12 -12 -12 -12 -13 -13 -13 -13 -13 -13 -12 -12 -12 -12 -12 -12 -12 -12 -11
-11 -11 -11 -11 -11 -11 -11 -12 -12 -12 -12 -12 -12 -12 -12 -12 -12 -12 -12 -12 -12 -13 -12 -12 -12 -12 -13 -13 -13 -13 -13 -13 -13 -13 -13 -13 -13 -13 -12 -12 -12 -12 -12 -11
-11 -11 -11 -11 -11 -12 -12 -12 -12 -12 -12 -12 -12 -12 -12 -13 -13 -13 -13 -13 -13 -13 -13 -13 -13 -13 -13 -13 -13 -13 -13 -13 -13 -13 -13 -13 -13 -13 -13 -12 -12 -12 -12 -12
Wind_Speed
8 7 6 8 9 7 9 10 9 10 12 14 12 10 10 10 10 10 10 10 9 9 9 8 8 8 8 8 8 7 6 6 6 7 6 6 5 5 5 6 6 6 6 6
6 6 7 10 12 11 11 11 13 14 15 12 10 9 9 10 10 10 10 10 9 9 9 9 9 9 9 9 8 8 7 7 7 6 6 6 5 5 5 5 6 5 5 6
5 3 6 9 8 10 7 8 8 11 10 7 8 9 9 9 9 9 10 10 9 9 8 9 9 9 9 9 9 7 6 6 6 6 6 6 6 5 5 5 5 5 5 5
4 3 7 2 2 4 7 9 9 10 10 9 9 10 9 8 8 9 9 10 9 8 8 9 9 9 9 8 8 7 7 6 6 6 6 6 6 5 5 5 5 5 5 6
3 5 8 5 2 3 5 7 7 10 11 10 9 8 7 5 5 7 8 8 8 8 8 9 9 9 8 8 7 7 7 8 7 7 6 6 6 6 5 5 5 5 5 6
4 5 6 2 2 2 2 5 3 6 7 7 5 6 6 4 5 7 8 8 8 8 8 8 8 8 7 8 8 8 8 8 8 7 7 6 6 6 5 5 5 5 5 5
8 7 8 2 3 5 3 3 1 4 5 5 5 7 7 7 7 7 8 8 8 7 7 7 8 7 7 8 8 8 8 8 7 7 7 7 6 6 5 4 4 4 4 4
6 7 7 4 6 6 4 3 3 4 5 6 7 8 8 7 8 8 8 8 8 7 7 8 7 7 7 8 9 8 8 8 8 7 7 6 6 5 4 4 4 4 4 4
8 7 1 6 6 4 2 4 5 5 6 6 7 8 8 7 7 7 7 7 7 7 7 8 7 7 7 8 9 8 8 8 8 8 7 6 6 5 4 3 3 3 3 3
7 9 7 7 8 7 6 6 6 6 6 6 7 7 7 7 6 6 7 7 6 7 7 8 8 7 7 8 8 7 7 7 7 7 6 6 5 4 3 3 2 3 3 3
8 8 7 6 8 7 6 6 6 6 5 6 6 7 7 6 7 6 6 6 6 6 7 8 9 8 8 8 7 7 7 7 7 6 6 5 5 4 4 3 3 3 3 3
7 5 5 4 2 3 5 5 5 5 6 5 5 6 6 6 6 6 6 7 7 7 8 8 8 9 9 7 6 6 6 6 5 5 5 5 5 4 5 4 5 5 5 5
5 2 3 4 3 3 4 6 5 5 5 6 6 6 6 6 6 6 6 7 7 8 8 8 8 8 8 7 6 6 6 6 5 5 5 5 4 4 4 5 5 5 6 6
4 3 3 3 3 4 4 5 5 5 5 5 5 5 5 5 6 6 7 7 7 7 8 8 8 8 8 7 6 6 6 6 6 5 5 4 4 4 4 4 4 4 5 5
4 4 4 4 4 4 4 3 4 5 5 5 4 4 5 5 6 7 7 7 7 7 7 7 7 8 8 7 6 6 6 5 5 5 5 4 4 4 3 4 3 4 4 4
3 3 4 4 5 4 4 4 4 5 5 5 5 5 5 6 6 7 7 6 6 7 7 7 7 8 7 6 6 5 5 6 6 5 4 4 4 3 3 3 3 3 4 4
2 3 4 5 5 5 5 5 5 5 5 6 6 5 5 5 6 6 6 6 6 7 7 7 7 7 6 6 5 5 5 5 6 5 4 3 3 3 3 3 3 3 3 4
5 5 5 6 6 6 6 6 5 5 5 6 5 5 5 5 6 7 7 7 7 7 7 7 7 6 6 6 5 4 4 4 4 4 4 3 3 3 3 3 3 3 4 4
4 5 5 5 5 5 5 6 6 5 5 5 5 5 5 6 6 6 6 6 6 7 7 7 8 6 6 6 6 4 4 4 4 4 3 4 4 3 3 3 3 4 4 3
4 4 4 4 4 4 5 5 5 5 4 4 4 5 5 6 5 6 6 6 6 6 7 7 7 6 5 5 6 4 4 4 4 4 3 3 3 3 3 4 4 4 4 3
4 4 4 4 4 4 4 4 4 5 5 4 4 5 6 6 5 5 5 6 6 7 7 8 6 5 5 5 6 4 4 4 4 4 4 4 4 4 4 4 4 4 4 3
3 4 4 4 4 4 4 3 4 4 4 4 5 5 5 6 5 5 5 5 6 8 6 5 5 6 7 6 4 4 4 4 4 4 4 4 4 4 4 4 4 4 3 3
3 3 3 3 3 4 4 3 3 3 4 4 5 5 5 5 5 5 5 5 5 7 6 5 7 8 8 5 4 4 4 4 4 4 4 4 4 4 4 4 4 4 4 3
3 3 3 2 2 2 3 4 3 3 4 4 4 5 5 4 5 4 5 7 8 8 6 7 9 9 8 4 4 4 4 4 4 4 4 4 4 4 4 4 4 4 4 4
2 2 2 2 2 3 4 4 4 4 4 4 4 5 4 4 4 5 5 6 8 7 5 7 8 8 6 4 4 4 4 4 4 5 4 4 4 4 4 4 4 4 4 4
2 2 2 3 3 3 3 3 3 3 3 4 4 4 4 4 4 4 4 5 6 7 5 5 5 6 4 4 4 5 5 5 5 5 4 4 5 5 4 4 5 4 4 4
2 2 2 2 2 2 2 2 3 4 4 4 4 4 4 4 4 4 5 5 5 5 5 5 4 4 5 5 5 5 5 5 5 5 5 4 4 4 5 5 5 5 4 4
Wind_Direction
261 273 270 269 264 242 231 241 252 269 275 287 304 306 309 314 317 319 323 325 323 323 323 323 324 325 323 321 321 315 304 298 296 295 293 292 287 280 277 271 265 261 254 252
265 261 265 274 266 250 243 247 251 267 277 285 299 299 301 307 312 315 318 321 322 323 324 325 325 323 323 321 319 313 304 299 299 297 296 295 291 280 276 273 268 262 257 252
273 305 290 272 253 227 229 228 235 253 270 294 298 298 301 307 308 307 311 317 321 323 321 320 321 321 321 319 318 314 309 307 306 303 299 296 293 283 280 276 272 266 264 259
283 299 255 271 108 208 231 245 239 258 276 286 292 299 296 298 297 303 310 314 317 317 317 318 319 320 319 319 320 319 315 310 310 307 301 300 298 289 286 281 274 271 269 263
249 268 276 275 209 197 225 264 243 251 270 287 303 298 288 288 289 300 306 310 314 314 312 314 318 322 322 322 324 324 322 320 315 308 303 302 301 294 291 286 280 274 268 264
223 251 263 292 134 165 209 270 230 237 264 287 304 296 309 328 314 311 312 313 317 319 318 317 320 323 324 324 326 324 320 317 316 311 303 299 295 294 289 282 279 277 270 263
229 244 265 274 144 157 220 297 296 246 262 269 265 281 308 316 315 313 313 317 321 323 322 320 321 325 323 322 321 319 318 317 316 313 307 301 295 290 282 280 281 278 274 271
206 226 254 157 156 202 260 328 276 268 272 272 279 293 301 305 310 313 317 321 324 325 322 323 325 326 322 320 319 320 321 320 319 316 313 310 303 296 286 278 277 278 279 283
206 226 280 174 209 245 282 276 280 282 288 283 284 291 298 302 305 309 313 315 319 320 319 322 324 323 315 314 318 320 321 320 321 322 318 314 311 304 297 287 276 275 273 278
247 258 256 241 250 259 257 266 279 283 284 279 281 287 293 295 299 305 308 310 314 318 318 319 322 321 312 311 316 319 319 319 320 322 320 320 315 308 298 288 280 281 281 279
250 269 281 259 242 252 262 271 279 283 282 276 278 284 288 292 296 299 303 306 310 310 311 313 318 318 318 317 319 318 317 317 320 320 319 320 318 314 309 300 286 278 275 272
246 246 236 267 261 250 255 265 275 282 289 284 276 278 285 288 292 297 300 303 306 307 309 311 314 315 317 317 316 314 315 318 318 318 319 319 320 321 327 316 325 317 302 288
257 284 261 278 287 265 263 272 277 272 273 281 281 276 280 286 292 296 298 300 301 303 305 308 310 312 316 317 315 311 308 310 310 312 314 316 316 317 321 327 330 333 330 317
254 263 271 266 278 284 275 274 277 280 279 277 280 283 283 287 293 295 296 298 300 300 302 306 308 309 314 314 310 307 305 307 308 308 310 310 309 309 308 314 323 325 331 338
249 244 256 278 286 289 288 286 289 293 297 296 291 287 288 289 292 294 298 300 299 299 301 305 307 309 315 313 311 310 309 309 307 306 307 307 308 308 306 308 311 316 324 332
264 261 258 264 274 285 289 286 284 289 294 294 293 291 291 291 292 296 298 300 298 299 301 303 304 308 312 311 309 309 309 312 308 303 303 304 307 306 307 309 310 312 318 322
230 256 263 274 277 280 276 274 275 281 285 286 288 293 296 297 298 300 303 304 298 295 296 298 301 307 310 310 307 307 308 308 307 300 299 298 299 300 300 300 304 308 311 319
239 248 251 258 265 272 279 281 280 280 280 285 291 291 290 290 293 299 305 308 308 306 304 303 303 309 310 312 308 306 305 305 306 302 298 298 297 297 293 292 297 300 304 313
250 256 260 263 263 261 268 275 278 280 283 285 285 284 285 287 291 298 305 307 305 305 311 314 311 309 310 313 313 301 302 307 309 307 302 300 300 296 295 295 297 297 300 305
261 266 269 271 269 265 270 277 279 283 285 282 282 287 291 295 298 301 300 294 293 300 306 313 313 311 311 311 314 304 303 306 310 309 306 301 298 297 296 296 299 301 302 302
269 272 273 274 278 279 277 277 277 283 289 283 277 282 289 296 299 298 299 300 305 311 311 312 314 312 314 317 313 309 307 305 307 305 301 300 299 298 298 299 299 298 297 297
271 271 274 278 281 289 294 289 280 281 288 289 287 288 292 297 300 296 289 290 302 312 314 310 310 313 318 316 311 308 307 307 305 304 299 297 295 293 294 294 291 292 293 293
272 275 279 282 284 294 301 296 287 284 285 288 290 289 288 291 292 294 299 303 306 309 313 311 314 317 319 320 314 308 307 305 304 303 301 298 294 292 291 292 291 290 288 286
275 280 287 296 300 298 300 303 302 297 293 291 289 287 287 293 295 290 289 303 312 310 309 312 317 320 323 326 317 311 307 304 302 303 303 299 295 294 293 293 292 291 288 287
273 279 284 288 288 289 294 305 310 308 307 304 303 301 294 285 286 298 304 306 311 315 313 315 321 326 328 321 316 311 307 302 299 299 299 301 300 299 296 294 292 289 284 279
271 270 271 272 275 285 293 296 299 304 307 308 311 311 311 308 303 304 306 310 311 314 315 314 317 320 319 316 313 311 307 305 306 307 303 300 298 297 295 295 294 292 287 279
281 283 288 295 295 291 288 287 290 296 300 301 303 310 314 314 313 313 313 312 313 313 312 314 315 316 315 314 313 313 310 306 303 300 299 298 296 294 294 293 292 291 287 280
Height
1544 1543 1544 1542 1540 1542 1541 1533 1528 1519 1518 1512 1513 1513 1511 1509 1506 1503 1500 1497 1494 1492 1489 1487 1484 1482 1480 1479 1477 1476 1475 1475 1474 1474 1474 1474 1473 1473 1474 1475 1475 1476 1477 1477
1543 1542 1542 1539 1534 1534 1535 1533 1528 1524 1518 1513 1513 1512 1509 1507 1504 1501 1498 1496 1493 1490 1487 1484 1482 1479 1477 1475 1474 1472 1471 1471 1470 1470 1469 1469 1469 1469 1470 1470 1471 1471 1472 1472
1534 1541 1539 1526 1523 1527 1527 1525 1524 1519 1513 1513 1512 1510 1508 1506 1503 1500 1497 1495 1491 1488 1486 1483 1480 1477 1475 1473 1471 1469 1468 1467 1466 1465 1465 1465 1465 1465 1465 1465 1466 1466 1467 1467
1537 1538 1529 1515 1523 1523 1523 1520 1520 1516 1513 1512 1510 1508 1506 1504 1501 1498 1495 1492 1490 1487 1484 1482 1479 1476 1473 1471 1468 1466 1465 1464 1463 1462 1461 1461 1460 1460 1460 1461 1461 1461 1461 1462
1538 1530 1518 1515 1520 1522 1521 1515 1514 1513 1511 1510 1508 1505 1502 1500 1498 1496 1493 1491 1488 1485 1482 1479 1476 1473 1471 1468 1466 1464 1462 1460 1459 1458 1457 1456 1456 1456 1456 1456 1456 1457 1457 1458
1539 1531 1518 1510 1519 1519 1521 1511 1509 1510 1509 1508 1507 1502 1499 1498 1496 1493 1491 1488 1485 1483 1480 1477 1474 1471 1468 1466 1463 1461 1459 1457 1456 1455 1454 1453 1452 1452 1452 1452 1452 1452 1452 1453
1535 1529 1514 1514 1518 1520 1516 1506 1508 1507 1507 1506 1504 1502 1499 1496 1493 1491 1488 1485 1482 1479 1477 1474 1472 1469 1466 1463 1461 1459 1457 1455 1453 1452 1451 1450 1449 1449 1448 1448 1448 1448 1448 1448
1532 1528 1515 1514 1516 1514 1508 1506 1505 1505 1504 1503 1501 1498 1496 1493 1490 1488 1485 1482 1479 1476 1473 1471 1469 1466 1463 1461 1459 1457 1455 1452 1451 1449 1447 1446 1445 1445 1444 1444 1444 1444 1444 1444
1520 1512 1509 1509 1508 1507 1506 1505 1503 1502 1501 1500 1497 1495 1493 1490 1488 1485 1482 1479 1477 1474 1471 1469 1467 1464 1461 1459 1457 1455 1452 1450 1448 1446 1444 1443 1442 1441 1440 1440 1440 1440 1440 1440
1516 1507 1506 1506 1505 1504 1503 1502 1501 1500 1498 1496 1494 1492 1490 1487 1485 1482 1480 1477 1474 1472 1469 1466 1464 1462 1459 1457 1455 1452 1450 1448 1445 1444 1442 1440 1439 1438 1437 1437 1437 1437 1437 1437
1510 1505 1503 1501 1500 1500 1499 1499 1497 1496 1494 1493 1491 1488 1486 1484 1482 1480 1477 1475 1472 1469 1466 1464 1462 1459 1457 1455 1453 1450 1448 1446 1443 1441 1439 1437 1436 1436 1435 1434 1434 1434 1434 1434
1500 1499 1499 1498 1497 1497 1496 1495 1493 1492 1490 1489 1488 1485 1483 1481 1479 1477 1474 1472 1469 1466 1464 1461 1459 1456 1454 1452 1450 1447 1445 1443 1441 1439 1437 1435 1434 1433 1432 1432 1431 1431 1431 1431
1497 1496 1496 1495 1494 1494 1493 1492 1490 1489 1487 1486 1484 1482 1480 1478 1476 1474 1472 1469 1466 1464 1461 1458 1456 1453 1451 1450 1448 1445 1443 1441 1439 1437 1435 1433 1432 1430 1429 1429 1428 1428 1427 1427
1494 1494 1493 1492 1492 1491 1490 1489 1487 1486 1484 1483 1481 1479 1477 1475 1473 1471 1469 1466 1464 1461 1458 1456 1453 1451 1449 1447 1445 1443 1441 1439 1437 1435 1433 1432 1430 1429 1428 1426 1425 1424 1424 1424
1491 1492 1491 1490 1490 1489 1488 1486 1484 1483 1481 1479 1478 1476 1474 1472 1469 1467 1465 1463 1460 1458 1455 1453 1450 1448 1446 1444 1442 1440 1438 1436 1434 1432 1431 1430 1428 1427 1426 1425 1423 1422 1421 1421
1489 1488 1488 1487 1487 1486 1485 1483 1481 1479 1478 1476 1474 1472 1471 1468 1466 1464 1462 1460 1457 1454 1452 1449 1447 1445 1443 1442 1440 1437 1435 1434 1432 1430 1428 1427 1426 1425 1424 1423 1421 1420 1419 1419
1486 1485 1485 1484 1484 1483 1481 1480 1478 1477 1475 1473 1471 1469 1467 1465 1463 1461 1459 1457 1454 1452 1449 1447 1444 1442 1441 1439 1437 1435 1433 1431 1429 1427 1426 1425 1423 1423 1422 1421 1419 1418 1418 1417
1484 1483 1483 1482 1481 1479 1478 1477 1476 1474 1472 1470 1468 1466 1464 1462 1460 1458 1456 1453 1451 1448 1446 1444 1442 1440 1438 1436 1434 1432 1430 1428 1426 1424 1423 1422 1421 1420 1419 1418 1417 1417 1416 1415
1481 1480 1480 1479 1478 1477 1475 1474 1473 1471 1469 1467 1465 1463 1461 1459 1457 1455 1453 1450 1448 1445 1443 1441 1439 1437 1435 1433 1432 1430 1428 1426 1424 1422 1421 1420 1419 1418 1417 1416 1415 1414 1414 1413
1478 1478 1477 1476 1475 1474 1472 1471 1470 1468 1466 1465 1463 1460 1458 1456 1454 1452 1450 1448 1445 1443 1441 1439 1437 1435 1433 1431 1429 1427 1425 1424 1422 1420 1419 1418 1417 1416 1415 1414 1413 1412 1411 1411
1476 1475 1474 1473 1472 1471 1470 1468 1467 1465 1463 1462 1460 1457 1455 1454 1452 1449 1447 1444 1442 1440 1438 1436 1434 1432 1430 1428 1427 1425 1423 1421 1420 1418 1417 1416 1415 1413 1412 1411 1410 1410 1409 1408
1473 1472 1471 1470 1469 1468 1467 1465 1464 1462 1461 1459 1457 1455 1453 1451 1449 1447 1445 1443 1440 1438 1436 1434 1432 1430 1428 1426 1424 1422 1421 1419 1418 1416 1415 1414 1412 1411 1410 1409 1408 1407 1406 1406
1471 1470 1469 1468 1467 1465 1464 1463 1461 1460 1458 1456 1454 1452 1451 1449 1447 1444 1442 1440 1438 1436 1433 1432 1430 1428 1426 1424 1422 1420 1419 1417 1416 1414 1413 1411 1410 1409 1407 1406 1405 1404 1404 1403
1468 1467 1466 1465 1464 1463 1461 1460 1459 1457 1456 1454 1452 1451 1449 1446 1444 1443 1441 1438 1436 1434 1431 1429 1428 1426 1424 1422 1420 1418 1417 1415 1413 1412 1410 1409 1408 1406 1405 1404 1403 1402 1401 1401
1466 1465 1464 1463 1462 1460 1459 1458 1456 1455 1453 1452 1450 1448 1447 1445 1443 1441 1439 1436 1434 1432 1429 1427 1426 1424 1422 1420 1418 1416 1415 1413 1411 1410 1408 1407 1405 1404 1403 1401 1400 1399 1398 1398
1463 1463 1462 1461 1460 1458 1457 1455 1454 1452 1451 1449 1448 1446 1445 1443 1441 1439 1437 1435 1433 1430 1428 1426 1424 1422 1420 1418 1416 1414 1412 1411 1409 1407 1406 1404 1403 1402 1400 1399 1398 1397 1396 1396
1461 1460 1459 1458 1457 1456 1455 1453 1452 1450 1449 1447 1446 1444 1443 1441 1439 1437 1435 1433 1431 1429 1426 1424 1422 1420 1418 1416 1414 1412 1410 1408 1407 1405 1404 1402 1401 1399 1398 1397 1396 1395 1394 1394